Погода в Гейте

Танзания     2°52′56″S   32°12′56″E
В апреле 2022 года жителям России запретили посещать сайт meteo.paraplan.net по решению Генеральной прокуратуры. Аудитория сайта уменьшилась в 10 раз. Владельцы сайта не видят смысла в поддержке погодного сервера в таких условиях. Сайт будет закрыт в октябре.
темп.,
°C
ветер,
м/с
пор.,
м/с
влажн.,
%
обл.,
%
осадки,
мм/ч
давл.,
гПа
погр.,
м
30 сентября, пт
пт3000:00+20ссв23614 0.0 101268
03:00+19ююв11725 0.0 101111
06:00+19ссв11685 0.0 101211
09:00+24юв224854 0.0 1013815
12:00+28всв323499 0.0 10122166
15:00+29ссв223089 0.0 10082503
18:00+27с443852 0.0 1008819
21:00+22ссз265424 0.0 1011138
1 октября, сб
сб100:00+21с115614 0.0 101214
03:00+20юз246282 0.0 1012100
06:00+20ссв1256100 0.0 101230
09:00+21в136189 0.0 1015187
12:00+29с2335100 0.0 10122398
15:00+25сз464837 0.0 1009472
18:00+26сз45476 0.0 1009502
21:00+21св24625 0.0 1012102
2 октября, вс
вс200:00+19св387194 0.7 1013166
03:00+19зюз117733 0.9 101111
06:00+19ссв257765 0.1 101298
09:00+24вюв345699 0.7 1014765
12:00+30вюв233136 0.3 10122184
15:00+29св233398 0.3 10081823
18:00+27сз43425 0.0 1008813
21:00+22с245511 0.0 1010123
3 октября, пн
пн300:00+20ссв11678 0.0 101112
03:00+19св1176100 0.0 101012
06:00+18в1183100 0.0 101211
09:00+24вюв3453100 0.2 1013700
12:00+30юв332799 0.0 10112136
15:00+32вюв3320100 0.0 10063424
18:00+30вюв2421100 0.0 1005241
21:00+23ссз22535 0.0 100918
4 октября, вт
вт400:00+21ссз225921 0.0 100921
03:00+19св226946 0.0 100955
06:00+18с118650 0.2 101118
09:00+24с136184 0.5 1013558
12:00+29ссв3233100 0.0 10112600
15:00+29ссз4330100 0.0 10062005
18:00+27с3341100 0.0 10071003
21:00+22с235792 0.0 101082